Regional Weather Roundup
Issued by NWS Albany, NY

Home | Current Version | Previous Version | Text Only | Print | Product List | Glossary On
Versions: 1 2 3 4 5 6 7 8 9 10 11 12 13 14 15 16 17 18 19 20 21 22 23 24 25 26 27 28 29 30 31 32 33 34 35 36 37 38 39 40 41 42 43 44 45 46 47 48 49 50
438
ASUS41 KALY 272310
RWRALY

NEW YORK STATE HOURLY WEATHER ROUNDUP
NATIONAL WEATHER SERVICE ALBANY NY
700 PM EDT MON MAR 27 2017

NOTE: "FAIR" INDICATES FEW OR NO CLOUDS BELOW 12,000 FEET WITH NO
SIGNIFICANT WEATHER AND/OR NO OBSTRUCTIONS TO VISIBILITY.

NYZ032-033-038>043-046>054-057>066-NYZ062>081-082-084-280000-
EAST


CITY           SKY/WX    TMP DP  RH WIND       PRES   REMARKS
ALBANY         CLOUDY    46  39  76 CALM      29.98S
GLENS FALLS    FOG       37  36  96 E3        29.98S VSB 1/4
POUGHKEEPSIE   CLEAR     46  41  82 CALM      29.97S
NEWBURGH       CLEAR     46  45  93 CALM      29.99R
MONTGOMERY     CLEAR     47  42  83 SW5       29.96S
WHITE PLAINS   MOCLDY    49  45  86 CALM      29.98S
ISLIP          CLOUDY    51  47  86 N3        29.99S
NEW YORK CITY  MOCLDY    49  43  80 NE7       29.99R
CENTRAL PARK   PTCLDY    49  44  83 CALM      30.01S
$$

NYZ005>009-017-018-044>046-055-056-280000-
CENTRAL


CITY           SKY/WX    TMP DP  RH WIND       PRES   REMARKS
FULTON         LGT RAIN  46  42  86 CALM      29.93R
SYRACUSE       CLOUDY    45  41  86 E5        29.91S
ROME           CLOUDY    40  38  93 E6        29.95F
ELMIRA         CLOUDY    59  51  75 CALM      29.91R
BINGHAMTON     CLOUDY    53  46  77 W6        29.92R
MONTICELLO     CLEAR     46  45  93 CALM      29.97S
$$

NYZ026>034-041>043-087-280000-
NORTH


CITY           SKY/WX    TMP DP  RH WIND       PRES   REMARKS
WATERTOWN      CLOUDY    48  46  93 SW3       29.89S
FORT DRUM      NOT AVBL
MASSENA        FOG       38  37  97 E3        29.91F VSB 1/4
SARANAC LAKE   CLOUDY    39  39 100 W5        29.88S FOG
PLATTSBURGH    LGT RAIN  38  35  89 SE7       29.93S WCI  33
$$

NYZ001>004-010>016-019>021-085-280000-
WEST


CITY           SKY/WX    TMP DP  RH WIND       PRES   REMARKS
NIAGARA FALLS  CLOUDY    51  45  79 SW12      29.90R
BUFFALO        CLOUDY    50  46  86 SW10      29.92R
DUNKIRK        MOCLDY    52  47  83 SW6       29.92F
JAMESTOWN      MOCLDY    54  46  76 N5        29.91S
WELLSVILLE     CLOUDY    56  48  74 NW6       29.93R
ROCHESTER      CLOUDY    56  50  80 SW6       29.91R
PENN YAN       CLOUDY    58  47  66 SW5       29.91S
$$

             KEY
       WCI = WIND CHILL INDEX
       VSB = VISIBILITY
       HX  = HEAT INDEX
$$




USA.gov is the U.S. government's official web portal to all federal, state and local government web resources and services.